Total_Precipitation_Accumulation
1.03 1.06 0.97 1.11 1.18 1.17 1.18 1.19 1.11 1.07 1.08 0.95 0.96 1.01 0.99 0.84 0.89 0.95 1.08 1.13 1.42 1.89 2.02 1.81 1.59 1.39 1.27 1.19 1.28 1.41 1.57 1.56 1.58 1.62 1.59 1.78 2.02 1.90 2.01 2.12 2.24 2.54 2.76
0.91 1.09 1.03 1.01 1.09 1.27 1.33 1.28 1.18 1.24 1.25 1.08 1.08 1.16 1.12 1.02 1.03 1.05 1.13 1.03 0.98 1.26 1.68 1.90 1.89 1.74 1.53 1.42 1.37 1.48 1.70 1.61 1.54 1.54 1.59 1.80 2.11 1.95 1.98 2.15 2.15 2.37 2.65
0.84 1.01 0.97 0.89 0.89 1.05 1.25 1.39 1.42 1.42 1.27 1.18 1.17 1.20 1.12 1.10 1.09 1.22 1.22 1.17 0.99 0.86 1.07 1.35 1.62 1.75 1.75 1.73 1.59 1.55 1.70 1.66 1.64 1.62 1.63 1.70 2.04 2.12 2.11 2.17 2.10 2.28 2.43
0.62 0.82 0.90 0.83 0.83 1.02 1.24 1.45 1.57 1.63 1.48 1.43 1.47 1.38 1.21 1.17 1.16 1.27 1.27 1.26 1.26 1.02 0.87 0.87 1.03 1.30 1.51 1.68 1.76 1.74 1.76 1.70 1.63 1.61 1.51 1.50 1.76 1.96 2.08 2.14 2.13 2.27 2.36
0.54 0.75 0.95 1.00 1.00 1.11 1.25 1.30 1.52 1.63 1.70 1.64 1.50 1.39 1.30 1.31 1.30 1.23 1.35 1.31 1.29 1.22 1.05 0.78 0.70 0.79 1.05 1.39 1.62 1.71 1.85 1.91 1.75 1.65 1.43 1.36 1.50 1.76 2.09 1.90 1.94 2.10 2.29
0.67 0.85 1.09 1.19 1.31 1.35 1.43 1.59 1.89 1.91 1.81 1.83 1.66 1.46 1.33 1.35 1.39 1.42 1.39 1.33 1.37 1.24 1.09 0.92 0.79 0.58 0.67 0.99 1.36 1.60 1.75 1.98 1.91 1.86 1.66 1.41 1.36 1.55 1.93 1.93 1.94 2.01 2.19
0.82 1.03 1.25 1.50 1.64 1.54 1.56 1.78 2.05 2.22 2.07 1.94 2.00 1.88 1.73 1.54 1.50 1.46 1.42 1.44 1.44 1.36 1.25 1.20 1.07 0.91 0.76 0.70 0.90 1.26 1.53 1.78 1.88 1.94 1.98 1.72 1.49 1.48 1.64 1.62 1.67 1.91 2.20
0.94 0.99 1.20 1.41 1.50 1.57 1.63 1.75 1.99 2.33 2.21 1.99 2.16 2.51 2.31 2.08 1.67 1.36 1.47 1.51 1.53 1.46 1.34 1.19 1.16 1.10 1.04 1.05 0.72 0.79 1.12 1.47 1.81 1.89 1.93 1.86 1.74 1.50 1.53 1.49 1.46 1.61 1.87
1.24 1.21 1.24 1.39 1.48 1.62 1.72 1.77 1.80 2.09 2.23 2.11 2.12 2.61 2.55 2.33 2.16 1.71 1.39 1.43 1.52 1.58 1.55 1.43 1.30 1.24 1.18 1.30 1.08 0.73 0.81 1.03 1.45 1.74 1.88 1.92 1.81 1.57 1.50 1.51 1.50 1.57 1.67
1.54 1.53 1.52 1.62 1.58 1.55 1.58 1.61 1.60 1.82 2.18 2.28 2.13 2.00 1.98 2.06 2.36 2.10 1.58 1.41 1.43 1.44 1.55 1.45 1.46 1.48 1.50 1.46 1.31 0.95 0.70 0.77 1.12 1.64 2.00 1.99 1.80 1.60 1.48 1.53 1.46 1.48 1.57
2.10 2.03 1.97 1.84 1.67 1.58 1.60 1.65 1.65 1.74 1.88 2.05 2.02 1.91 1.90 1.86 1.74 1.91 1.87 1.63 1.44 1.33 1.42 1.48 1.53 1.55 1.64 1.61 1.50 1.15 0.82 0.64 0.78 1.23 1.69 1.89 1.90 1.72 1.53 1.48 1.41 1.36 1.30
2.07 2.01 1.88 1.67 1.51 1.46 1.52 1.66 1.69 1.74 1.74 1.82 1.81 1.73 1.73 1.71 1.63 1.78 1.75 1.74 1.72 1.37 1.27 1.34 1.42 1.48 1.48 1.53 1.39 1.44 1.11 0.79 0.66 0.83 1.11 1.44 1.77 1.94 1.83 1.75 1.60 1.49 1.37
1.47 1.49 1.49 1.48 1.42 1.36 1.45 1.66 1.75 1.77 1.75 1.74 1.71 1.65 1.69 1.56 1.61 1.87 1.90 1.81 1.73 1.42 1.26 1.17 1.23 1.32 1.28 1.39 1.45 1.57 1.30 1.03 0.78 0.70 0.78 0.95 1.20 1.60 1.94 2.11 2.14 1.98 1.84
1.27 1.27 1.35 1.38 1.36 1.37 1.40 1.52 1.67 1.76 1.75 1.67 1.64 1.76 1.73 1.54 1.63 1.68 1.70 1.88 1.77 1.55 1.37 1.11 1.05 1.06 1.13 1.18 1.35 1.55 1.11 1.02 0.87 0.72 0.66 0.72 0.90 1.09 1.43 1.82 2.18 2.23 2.11
0.97 1.06 1.16 1.24 1.21 1.22 1.27 1.39 1.56 1.60 1.69 1.74 1.74 1.76 1.76 1.68 1.69 1.70 1.78 1.84 1.87 1.67 1.42 1.20 1.05 0.94 1.02 1.04 1.27 1.18 1.00 1.01 0.94 0.82 0.74 0.70 0.80 0.95 1.15 1.25 1.36 1.46 1.56
0.85 0.91 0.89 0.86 0.84 0.89 0.92 1.05 1.25 1.34 1.40 1.49 1.49 1.54 1.59 1.60 1.66 1.67 1.74 1.80 1.78 1.72 1.55 1.32 1.15 1.08 1.12 1.02 1.14 1.04 1.09 1.22 1.04 0.89 0.80 0.75 0.77 0.86 0.94 0.96 0.94 0.88 0.89
0.54 0.62 0.57 0.55 0.61 0.66 0.64 0.73 0.84 0.95 1.07 1.17 1.17 1.20 1.27 1.32 1.42 1.49 1.60 1.66 1.70 1.67 1.43 1.28 1.16 1.17 1.19 1.18 1.15 1.07 1.12 1.16 1.05 0.95 0.81 0.72 0.74 0.81 0.88 0.91 0.89 0.82 0.73
0.24 0.31 0.33 0.34 0.42 0.54 0.56 0.63 0.67 0.70 0.81 0.91 0.96 1.01 1.04 1.07 1.19 1.28 1.35 1.43 1.56 1.61 1.50 1.34 1.23 1.18 1.08 1.10 1.25 1.30 1.28 1.20 1.20 1.25 1.12 0.95 0.87 0.85 0.83 0.88 0.92 0.88 0.79
0.17 0.21 0.24 0.27 0.31 0.41 0.52 0.58 0.61 0.60 0.60 0.62 0.66 0.71 0.78 0.85 1.01 1.10 1.13 1.23 1.39 1.42 1.49 1.40 1.34 1.28 1.13 1.06 1.23 1.26 1.32 1.49 1.41 1.48 1.59 1.38 1.12 0.97 0.86 0.89 0.94 0.92 0.84
0.17 0.16 0.15 0.17 0.26 0.36 0.44 0.53 0.57 0.54 0.53 0.54 0.56 0.58 0.61 0.64 0.74 0.86 0.97 1.17 1.34 1.46 1.50 1.44 1.43 1.40 1.32 1.23 1.29 1.39 1.46 1.56 1.60 1.43 1.44 1.41 1.35 1.24 1.04 0.93 0.98 1.02 0.99
0.13 0.09 0.07 0.09 0.17 0.23 0.28 0.42 0.47 0.48 0.51 0.49 0.50 0.56 0.59 0.57 0.59 0.63 0.63 0.81 1.04 1.28 1.38 1.43 1.46 1.49 1.44 1.40 1.35 1.47 1.55 1.67 1.76 1.74 1.61 1.43 1.39 1.24 1.12 1.04 1.00 1.04 1.08
0.11 0.08 0.06 0.07 0.09 0.09 0.16 0.23 0.32 0.43 0.50 0.54 0.54 0.59 0.57 0.53 0.58 0.58 0.56 0.58 0.70 0.87 1.05 1.17 1.26 1.31 1.37 1.48 1.59 1.60 1.57 1.63 1.69 1.71 1.58 1.59 1.53 1.41 1.24 1.07 1.07 1.08 1.11
0.06 0.05 0.05 0.07 0.06 0.05 0.06 0.09 0.21 0.37 0.51 0.52 0.51 0.65 0.72 0.66 0.65 0.68 0.70 0.63 0.58 0.59 0.75 0.96 1.08 1.13 1.20 1.29 1.53 1.58 1.58 1.61 1.53 1.57 1.43 1.47 1.43 1.31 1.23 1.19 1.19 1.12 1.13
0.05 0.05 0.07 0.09 0.06 0.04 0.04 0.05 0.12 0.27 0.41 0.46 0.47 0.60 0.85 0.88 0.77 0.72 0.77 0.87 0.79 0.63 0.63 0.69 0.85 0.99 1.04 1.19 1.52 1.74 1.68 1.47 1.42 1.49 1.39 1.40 1.34 1.22 1.15 1.14 1.19 1.09 1.08
0.06 0.06 0.06 0.08 0.07 0.06 0.06 0.06 0.10 0.21 0.31 0.36 0.40 0.52 0.69 0.84 0.77 0.73 0.73 0.80 0.84 0.74 0.68 0.69 0.67 0.75 0.88 1.06 1.32 1.58 1.69 1.64 1.47 1.42 1.30 1.22 1.24 1.23 1.25 1.21 1.15 1.14 1.07
0.09 0.08 0.07 0.06 0.05 0.05 0.06 0.07 0.09 0.15 0.19 0.19 0.26 0.42 0.57 0.57 0.53 0.60 0.72 0.82 0.91 0.76 0.66 0.75 0.74 0.77 0.80 0.99 1.31 1.52 1.65 1.63 1.51 1.46 1.35 1.26 1.26 1.27 1.45 1.40 1.23 1.17 1.11